JES3191 SABE-SAVT

Flight info

Callsign JES3191
Flight time 1h 39m
Altitude 36000
Route PAL9 GBE UT694 IREMO UP664 VIE DCT KIGIR KIGIR3U
Aircraft A320/M-SDE3FGHIRWY/LB1

Departure

Time 2026-05-06 17:18
Airport Aeroparque Jorge Newbery (SABE)

Arrival

Time 2026-05-06 18:57
Airport Almirante Marco Andres Zar Airport (SAVT)
Time Latitude Longitude Altitude Speed Heading
2026-05-06 17:00 -34.55818 -58.41209 25 ft 0 kts 35°
2026-05-06 17:10 -34.55828 -58.41218 63 ft 2 kts 30°
2026-05-06 17:10 -34.55843 -58.41227 56 ft 2 kts 18°
2026-05-06 17:10 -34.55859 -58.41231 25 ft 2 kts 343°
2026-05-06 17:11 -34.55874 -58.41222 26 ft 2 kts 310°
2026-05-06 17:11 -34.55880 -58.41212 27 ft 1 kts 305°
2026-05-06 17:13 -34.55879 -58.41214 27 ft 2 kts 306°
2026-05-06 17:13 -34.55864 -58.41250 28 ft 6 kts 281°
2026-05-06 17:13 -34.55888 -58.41298 25 ft 8 kts 217°
2026-05-06 17:13 -34.55901 -58.41365 24 ft 10 kts 290°
2026-05-06 17:14 -34.55863 -58.41449 24 ft 13 kts 298°
2026-05-06 17:14 -34.55817 -58.41551 26 ft 15 kts 298°
2026-05-06 17:14 -34.55766 -58.41673 23 ft 17 kts 295°
2026-05-06 17:14 -34.55709 -58.41801 24 ft 18 kts 302°
2026-05-06 17:15 -34.55643 -58.41918 24 ft 16 kts 305°
2026-05-06 17:15 -34.55583 -58.42024 24 ft 16 kts 304°
2026-05-06 17:15 -34.55516 -58.42136 24 ft 18 kts 307°
2026-05-06 17:15 -34.55438 -58.42258 24 ft 18 kts 308°
2026-05-06 17:16 -34.55377 -58.42358 24 ft 12 kts 303°
2026-05-06 17:16 -34.55365 -58.42465 23 ft 11 kts 256°
2026-05-06 17:16 -34.55388 -58.42514 24 ft 5 kts 217°
2026-05-06 17:16 -34.55406 -58.42497 24 ft 0 kts 126°
2026-05-06 17:17 -34.55419 -58.42474 24 ft 22 kts 124°
2026-05-06 17:17 -34.55650 -58.42060 24 ft 93 kts 124°
2026-05-06 17:17 -34.56124 -58.41211 29 ft 146 kts 123°
2026-05-06 17:18 -34.56692 -58.40163 589 ft 149 kts 122°
2026-05-06 17:18 -34.57234 -58.39073 1207 ft 153 kts 112°
2026-05-06 17:18 -34.57388 -58.37763 1619 ft 166 kts 76°
2026-05-06 17:18 -34.56899 -58.36476 2087 ft 173 kts 47°
2026-05-06 17:19 -34.56080 -58.35335 2548 ft 187 kts 44°
2026-05-06 17:19 -34.55190 -58.34093 2968 ft 204 kts 45°
2026-05-06 17:19 -34.54224 -58.32697 3353 ft 228 kts 45°
2026-05-06 17:19 -34.53166 -58.31145 3874 ft 248 kts 44°
2026-05-06 17:20 -34.51835 -58.29789 4500 ft 254 kts 21°
2026-05-06 17:20 -34.50150 -58.29164 5257 ft 253 kts
2026-05-06 17:20 -34.48407 -58.29157 6215 ft 249 kts 348°
2026-05-06 17:20 -34.46759 -58.29716 7119 ft 245 kts 328°
2026-05-06 17:21 -34.46143 -58.30229 7517 ft 243 kts 316°
2026-05-06 17:21 -34.45176 -58.31898 8340 ft 249 kts 294°
2026-05-06 17:21 -34.44873 -58.34001 9043 ft 263 kts 270°
2026-05-06 17:21 -34.45362 -58.36177 9797 ft 278 kts 246°
2026-05-06 17:22 -34.46718 -58.37913 10511 ft 296 kts 217°
2026-05-06 17:22 -34.48715 -58.38700 11248 ft 313 kts 193°
2026-05-06 17:22 -34.50963 -58.38955 11564 ft 336 kts 188°
2026-05-06 17:22 -34.53365 -58.39019 11945 ft 353 kts 185°
2026-05-06 17:23 -34.55842 -58.39031 12582 ft 358 kts 185°
2026-05-06 17:23 -34.58344 -58.39062 13290 ft 361 kts 186°
2026-05-06 17:23 -34.60864 -58.39137 13967 ft 364 kts 187°
2026-05-06 17:23 -34.63399 -58.39257 14593 ft 366 kts 188°
2026-05-06 17:24 -34.65956 -58.39412 15203 ft 370 kts 188°
2026-05-06 17:24 -34.68538 -58.39585 15811 ft 373 kts 189°
2026-05-06 17:24 -34.71145 -58.39766 16419 ft 377 kts 189°
2026-05-06 17:24 -34.73776 -58.39948 17053 ft 381 kts 189°
2026-05-06 17:25 -34.76434 -58.40126 17665 ft 385 kts 189°
2026-05-06 17:25 -34.79120 -58.40305 18249 ft 389 kts 189°
2026-05-06 17:25 -34.81836 -58.40481 18808 ft 392 kts 189°
2026-05-06 17:25 -34.84570 -58.40655 19392 ft 395 kts 189°
2026-05-06 17:26 -34.87296 -58.40978 19969 ft 391 kts 199°
2026-05-06 17:26 -34.89805 -58.42099 20517 ft 381 kts 214°
2026-05-06 17:26 -34.92153 -58.43609 21091 ft 382 kts 214°
2026-05-06 17:26 -34.94508 -58.45145 21647 ft 384 kts 215°
2026-05-06 17:27 -34.96867 -58.46693 22182 ft 387 kts 215°
2026-05-06 17:27 -34.99241 -58.48255 22723 ft 389 kts 215°
2026-05-06 17:27 -35.01629 -58.49825 23250 ft 392 kts 215°
2026-05-06 17:27 -35.03259 -58.50898 23567 ft 393 kts 215°
2026-05-06 17:28 -35.05639 -58.52465 23998 ft 396 kts 215°
2026-05-06 17:28 -35.08068 -58.54058 24437 ft 398 kts 215°
2026-05-06 17:28 -35.10514 -58.55660 24878 ft 400 kts 215°
2026-05-06 17:28 -35.12973 -58.57270 25306 ft 402 kts 215°
2026-05-06 17:29 -35.15478 -58.58910 25742 ft 404 kts 215°
2026-05-06 17:29 -35.17958 -58.60477 26161 ft 411 kts 210°
2026-05-06 17:29 -35.20767 -58.61392 26556 ft 428 kts 192°
2026-05-06 17:29 -35.23830 -58.61189 26954 ft 446 kts 174°
2026-05-06 17:30 -35.26833 -58.60361 27343 ft 450 kts 173°
2026-05-06 17:30 -35.29929 -58.59468 27749 ft 452 kts 172°
2026-05-06 17:30 -35.32999 -58.58570 28152 ft 455 kts 172°
2026-05-06 17:30 -35.36043 -58.57682 28557 ft 457 kts 172°
2026-05-06 17:31 -35.39145 -58.56786 28956 ft 459 kts 172°
2026-05-06 17:31 -35.42306 -58.55881 29381 ft 462 kts 172°
2026-05-06 17:31 -35.45441 -58.54987 29789 ft 464 kts 172°
2026-05-06 17:31 -35.48595 -58.54088 30144 ft 466 kts 172°
2026-05-06 17:32 -35.51763 -58.53186 30486 ft 469 kts 172°
2026-05-06 17:32 -35.54949 -58.52277 30816 ft 471 kts 172°
2026-05-06 17:32 -35.58142 -58.51360 31156 ft 473 kts 172°
2026-05-06 17:32 -35.61346 -58.50439 31579 ft 472 kts 173°
2026-05-06 17:33 -35.64501 -58.49529 32080 ft 471 kts 173°
2026-05-06 17:33 -35.67723 -58.48598 32570 ft 469 kts 173°
2026-05-06 17:33 -35.70900 -58.47680 33058 ft 468 kts 173°
2026-05-06 17:33 -35.74069 -58.46767 33548 ft 466 kts 174°
2026-05-06 17:34 -35.77239 -58.46224 33991 ft 455 kts 186°
2026-05-06 17:34 -35.80347 -58.46447 34388 ft 440 kts 198°
2026-05-06 17:34 -35.83187 -58.47472 34780 ft 424 kts 212°
2026-05-06 17:34 -35.85738 -58.49263 35171 ft 414 kts 220°
2026-05-06 17:35 -35.88147 -58.51196 35562 ft 412 kts 220°
2026-05-06 17:35 -35.90542 -58.53127 35768 ft 412 kts 220°
2026-05-06 17:35 -35.92930 -58.55051 35813 ft 409 kts 220°
2026-05-06 17:36 -36.00051 -58.60775 35807 ft 407 kts 220°
2026-05-06 17:36 -36.04792 -58.64581 35805 ft 407 kts 220°
2026-05-06 17:37 -36.09542 -58.68396 35801 ft 407 kts 220°
2026-05-06 17:37 -36.14293 -58.72218 35806 ft 408 kts 221°
2026-05-06 17:38 -36.19043 -58.76052 35809 ft 408 kts 221°
2026-05-06 17:38 -36.23797 -58.79897 35813 ft 408 kts 221°
2026-05-06 17:39 -36.28558 -58.83751 35812 ft 409 kts 221°
2026-05-06 17:39 -36.33327 -58.87607 35815 ft 409 kts 221°
2026-05-06 17:40 -36.38100 -58.91471 35816 ft 410 kts 221°
2026-05-06 17:40 -36.42868 -58.95343 35825 ft 410 kts 221°
2026-05-06 17:41 -36.47639 -58.99229 35813 ft 411 kts 221°
2026-05-06 17:41 -36.52432 -59.03136 35821 ft 412 kts 221°
2026-05-06 17:42 -36.57234 -59.07051 35795 ft 414 kts 221°
2026-05-06 17:42 -36.62056 -59.10993 35792 ft 415 kts 221°
2026-05-06 17:43 -36.66895 -59.14954 35767 ft 418 kts 222°
2026-05-06 17:43 -36.71780 -59.18961 35770 ft 422 kts 222°
2026-05-06 17:44 -36.76712 -59.23005 35779 ft 425 kts 222°
2026-05-06 17:44 -36.81665 -59.27073 35787 ft 427 kts 222°
2026-05-06 17:45 -36.86638 -59.31167 35800 ft 428 kts 222°
2026-05-06 17:45 -36.91613 -59.35270 35815 ft 429 kts 221°
2026-05-06 17:46 -36.96591 -59.39376 35824 ft 429 kts 222°
2026-05-06 17:46 -37.01562 -59.43489 35827 ft 428 kts 222°
2026-05-06 17:47 -37.06527 -59.47619 35822 ft 429 kts 222°
2026-05-06 17:47 -37.11507 -59.51750 35810 ft 430 kts 222°
2026-05-06 17:48 -37.16495 -59.55889 35802 ft 431 kts 222°
2026-05-06 17:48 -37.21497 -59.60053 35793 ft 432 kts 222°
2026-05-06 17:49 -37.26511 -59.64241 35781 ft 434 kts 222°
2026-05-06 17:49 -37.31542 -59.68446 35783 ft 435 kts 222°
2026-05-06 17:50 -37.36594 -59.72666 35793 ft 436 kts 222°
2026-05-06 17:50 -37.41647 -59.76897 35806 ft 436 kts 222°
2026-05-06 17:51 -37.46700 -59.81140 35814 ft 436 kts 223°
2026-05-06 17:51 -37.51743 -59.85384 35821 ft 436 kts 223°
2026-05-06 17:52 -37.56776 -59.89630 35824 ft 435 kts 223°
2026-05-06 17:52 -37.61809 -59.93864 35830 ft 434 kts 223°
2026-05-06 17:53 -37.66828 -59.98098 35831 ft 434 kts 223°
2026-05-06 17:53 -37.71836 -60.02344 35832 ft 434 kts 223°
2026-05-06 17:54 -37.76842 -60.06600 35820 ft 434 kts 223°
2026-05-06 17:54 -37.81857 -60.10859 35837 ft 434 kts 223°
2026-05-06 17:55 -37.86868 -60.15118 35830 ft 435 kts 223°
2026-05-06 17:55 -37.91891 -60.19393 35833 ft 435 kts 223°
2026-05-06 17:56 -37.96912 -60.23686 35831 ft 435 kts 223°
2026-05-06 17:56 -38.01932 -60.27982 35828 ft 436 kts 223°
2026-05-06 17:57 -38.06961 -60.32292 35830 ft 436 kts 223°
2026-05-06 17:57 -38.12000 -60.36604 35830 ft 437 kts 223°
2026-05-06 17:58 -38.17044 -60.40937 35831 ft 438 kts 223°
2026-05-06 17:58 -38.22092 -60.45284 35837 ft 438 kts 223°
2026-05-06 17:59 -38.27141 -60.49643 35835 ft 439 kts 223°
2026-05-06 17:59 -38.32185 -60.54005 35839 ft 439 kts 223°
2026-05-06 18:00 -38.37256 -60.58394 35826 ft 440 kts 223°
2026-05-06 18:00 -38.42323 -60.62777 35827 ft 441 kts 223°
2026-05-06 18:01 -38.47395 -60.67175 35825 ft 441 kts 223°
2026-05-06 18:01 -38.52460 -60.71585 35824 ft 442 kts 223°
2026-05-06 18:02 -38.57543 -60.76015 35812 ft 442 kts 223°
2026-05-06 18:02 -38.62625 -60.80451 35807 ft 443 kts 223°
2026-05-06 18:03 -38.67721 -60.84899 35810 ft 444 kts 223°
2026-05-06 18:03 -38.72827 -60.89370 35807 ft 445 kts 223°
2026-05-06 18:04 -38.77941 -60.93862 35805 ft 446 kts 223°
2026-05-06 18:04 -38.83062 -60.98363 35802 ft 447 kts 223°
2026-05-06 18:05 -38.88190 -61.02880 35800 ft 447 kts 223°
2026-05-06 18:05 -38.93317 -61.07404 35801 ft 447 kts 224°
2026-05-06 18:06 -38.98449 -61.11928 35802 ft 448 kts 224°
2026-05-06 18:06 -39.02714 -61.15694 35791 ft 448 kts 224°
2026-05-06 18:07 -39.07885 -61.20280 35801 ft 448 kts 224°
2026-05-06 18:07 -39.13015 -61.24840 35800 ft 448 kts 224°
2026-05-06 18:08 -39.18140 -61.29397 35804 ft 447 kts 224°
2026-05-06 18:08 -39.23254 -61.33961 35802 ft 447 kts 224°
2026-05-06 18:09 -39.28368 -61.38523 35803 ft 447 kts 224°
2026-05-06 18:09 -39.33468 -61.43091 35803 ft 446 kts 224°
2026-05-06 18:10 -39.38563 -61.47667 35801 ft 446 kts 224°
2026-05-06 18:10 -39.43655 -61.52231 35806 ft 445 kts 224°
2026-05-06 18:11 -39.48745 -61.56801 35776 ft 446 kts 224°
2026-05-06 18:11 -39.53854 -61.61404 35776 ft 448 kts 224°
2026-05-06 18:12 -39.58955 -61.66017 35777 ft 443 kts 224°
2026-05-06 18:12 -39.63957 -61.70533 35776 ft 440 kts 224°
2026-05-06 18:13 -39.68992 -61.75116 35781 ft 443 kts 224°
2026-05-06 18:13 -39.74042 -61.79706 35779 ft 443 kts 224°
2026-05-06 18:14 -39.79098 -61.84293 35779 ft 443 kts 224°
2026-05-06 18:14 -39.84164 -61.88864 35778 ft 443 kts 224°
2026-05-06 18:15 -39.89137 -61.93559 35783 ft 440 kts 226°
2026-05-06 18:15 -39.93953 -61.98464 35784 ft 439 kts 227°
2026-05-06 18:16 -39.98719 -62.03431 35781 ft 439 kts 227°
2026-05-06 18:16 -40.03426 -62.08302 35787 ft 440 kts 227°
2026-05-06 18:17 -40.08157 -62.13154 35786 ft 441 kts 226°
2026-05-06 18:17 -40.12986 -62.18128 35786 ft 442 kts 226°
2026-05-06 18:18 -40.17816 -62.23101 35788 ft 442 kts 226°
2026-05-06 18:18 -40.22656 -62.28094 35784 ft 444 kts 226°
2026-05-06 18:19 -40.27511 -62.33105 35787 ft 445 kts 226°
2026-05-06 18:19 -40.32368 -62.38127 35788 ft 445 kts 226°
2026-05-06 18:20 -40.37234 -62.43167 35787 ft 446 kts 226°
2026-05-06 18:20 -40.42100 -62.48230 35787 ft 447 kts 226°
2026-05-06 18:21 -40.46977 -62.53309 35786 ft 448 kts 226°
2026-05-06 18:21 -40.51866 -62.58399 35784 ft 449 kts 226°
2026-05-06 18:22 -40.56761 -62.63505 35788 ft 449 kts 226°
2026-05-06 18:22 -40.61654 -62.68636 35784 ft 450 kts 226°
2026-05-06 18:23 -40.66549 -62.73785 35785 ft 451 kts 226°
2026-05-06 18:23 -40.71454 -62.78949 35786 ft 451 kts 226°
2026-05-06 18:24 -40.76365 -62.84123 35784 ft 452 kts 226°
2026-05-06 18:24 -40.81288 -62.89310 35787 ft 453 kts 226°
2026-05-06 18:25 -40.86212 -62.94510 35787 ft 453 kts 226°
2026-05-06 18:25 -40.91130 -62.99726 35784 ft 453 kts 226°
2026-05-06 18:26 -40.96046 -63.04951 35785 ft 454 kts 226°
2026-05-06 18:26 -41.00965 -63.10175 35780 ft 454 kts 226°
2026-05-06 18:27 -41.05889 -63.15422 35779 ft 454 kts 226°
2026-05-06 18:27 -41.10805 -63.20669 35773 ft 454 kts 226°
2026-05-06 18:28 -41.15717 -63.25936 35767 ft 454 kts 226°
2026-05-06 18:28 -41.20626 -63.31206 35771 ft 454 kts 226°
2026-05-06 18:29 -41.25542 -63.36493 35766 ft 454 kts 226°
2026-05-06 18:29 -41.30462 -63.41778 35764 ft 455 kts 225°
2026-05-06 18:30 -41.35378 -63.47070 35763 ft 455 kts 225°
2026-05-06 18:30 -41.40294 -63.52384 35764 ft 455 kts 225°
2026-05-06 18:31 -41.45204 -63.57708 35761 ft 455 kts 225°
2026-05-06 18:31 -41.50124 -63.63037 35761 ft 455 kts 225°
2026-05-06 18:32 -41.55035 -63.68369 35765 ft 455 kts 225°
2026-05-06 18:32 -41.59936 -63.73724 35765 ft 455 kts 225°
2026-05-06 18:33 -41.64838 -63.79085 35763 ft 455 kts 225°
2026-05-06 18:33 -41.69739 -63.84445 35762 ft 455 kts 225°
2026-05-06 18:34 -41.74642 -63.89808 35766 ft 455 kts 225°
2026-05-06 18:34 -41.79530 -63.95186 35760 ft 455 kts 225°
2026-05-06 18:35 -41.84419 -64.00574 35771 ft 455 kts 225°
2026-05-06 18:35 -41.89309 -64.05964 35772 ft 455 kts 225°
2026-05-06 18:36 -41.94196 -64.11363 35768 ft 455 kts 225°
2026-05-06 18:36 -41.99080 -64.16771 35722 ft 456 kts 225°
2026-05-06 18:37 -42.01537 -64.19497 35042 ft 460 kts 225°
2026-05-06 18:37 -42.03206 -64.21348 34623 ft 460 kts 225°
2026-05-06 18:37 -42.06477 -64.24981 33805 ft 461 kts 225°
2026-05-06 18:37 -42.08952 -64.27735 33122 ft 461 kts 224°
2026-05-06 18:38 -42.11417 -64.30481 32527 ft 459 kts 224°
2026-05-06 18:38 -42.13875 -64.33222 31893 ft 458 kts 224°
2026-05-06 18:38 -42.16320 -64.35952 31274 ft 456 kts 224°
2026-05-06 18:38 -42.18753 -64.38673 30661 ft 454 kts 224°
2026-05-06 18:39 -42.21178 -64.41385 30046 ft 452 kts 224°
2026-05-06 18:39 -42.23593 -64.44087 29388 ft 450 kts 224°
2026-05-06 18:39 -42.25984 -64.46765 28774 ft 445 kts 224°
2026-05-06 18:40 -42.30707 -64.52055 27587 ft 437 kts 224°
2026-05-06 18:40 -42.33035 -64.54669 27001 ft 433 kts 224°
2026-05-06 18:40 -42.35341 -64.57263 26413 ft 429 kts 224°
2026-05-06 18:40 -42.37626 -64.59838 25835 ft 426 kts 224°
2026-05-06 18:41 -42.39892 -64.62397 25262 ft 423 kts 224°
2026-05-06 18:41 -42.42147 -64.64945 24688 ft 420 kts 224°
2026-05-06 18:41 -42.44382 -64.67474 24119 ft 418 kts 224°
2026-05-06 18:41 -42.46465 -64.69830 23595 ft 415 kts 224°
2026-05-06 18:42 -42.48677 -64.72335 22985 ft 413 kts 225°
2026-05-06 18:42 -42.50867 -64.74818 22424 ft 409 kts 225°
2026-05-06 18:42 -42.53039 -64.77278 21874 ft 405 kts 225°
2026-05-06 18:42 -42.55187 -64.79714 21329 ft 401 kts 225°
2026-05-06 18:43 -42.57321 -64.82137 20789 ft 398 kts 225°
2026-05-06 18:43 -42.59433 -64.84538 20252 ft 395 kts 225°
2026-05-06 18:43 -42.61534 -64.86928 19718 ft 392 kts 225°
2026-05-06 18:43 -42.63614 -64.89299 19190 ft 389 kts 225°
2026-05-06 18:44 -42.65680 -64.91657 18670 ft 386 kts 225°
2026-05-06 18:44 -42.67730 -64.93996 18147 ft 383 kts 225°
2026-05-06 18:44 -42.69761 -64.96316 17584 ft 380 kts 225°
2026-05-06 18:44 -42.71772 -64.98609 17070 ft 374 kts 225°
2026-05-06 18:45 -42.73754 -65.00871 16568 ft 369 kts 225°
2026-05-06 18:45 -42.75705 -65.03103 16073 ft 364 kts 225°
2026-05-06 18:45 -42.77011 -65.04601 15744 ft 362 kts 225°
2026-05-06 18:45 -42.78928 -65.06802 15253 ft 358 kts 225°
2026-05-06 18:46 -42.81430 -65.09678 14616 ft 353 kts 225°
2026-05-06 18:46 -42.82696 -65.11136 14285 ft 351 kts 225°
2026-05-06 18:46 -42.85148 -65.13956 13671 ft 346 kts 225°
2026-05-06 18:46 -42.86388 -65.15381 13328 ft 344 kts 225°
2026-05-06 18:47 -42.88208 -65.17475 12849 ft 340 kts 225°
2026-05-06 18:47 -42.90005 -65.19545 12386 ft 336 kts 225°
2026-05-06 18:47 -42.91779 -65.21594 11941 ft 333 kts 225°
2026-05-06 18:47 -42.93539 -65.23627 11481 ft 330 kts 224°
2026-05-06 18:48 -42.95285 -65.25648 11042 ft 328 kts 224°
2026-05-06 18:48 -42.97020 -65.27656 10609 ft 326 kts 224°
2026-05-06 18:48 -42.98748 -65.29653 10169 ft 324 kts 224°
2026-05-06 18:48 -43.00459 -65.31633 9723 ft 319 kts 224°
2026-05-06 18:49 -43.02116 -65.33547 9274 ft 305 kts 224°
2026-05-06 18:49 -43.03700 -65.35377 8867 ft 292 kts 224°
2026-05-06 18:49 -43.05232 -65.37153 8481 ft 287 kts 224°
2026-05-06 18:49 -43.06746 -65.38914 8091 ft 284 kts 224°
2026-05-06 18:50 -43.08253 -65.40668 7711 ft 286 kts 223°
2026-05-06 18:50 -43.09769 -65.42433 7316 ft 287 kts 223°
2026-05-06 18:50 -43.11288 -65.44205 6925 ft 288 kts 223°
2026-05-06 18:50 -43.12814 -65.45986 6539 ft 288 kts 223°
2026-05-06 18:51 -43.14340 -65.47765 6144 ft 289 kts 223°
2026-05-06 18:51 -43.15874 -65.49553 5720 ft 290 kts 223°
2026-05-06 18:51 -43.17414 -65.51344 5335 ft 290 kts 222°
2026-05-06 18:51 -43.19150 -65.52725 4932 ft 289 kts 198°
2026-05-06 18:52 -43.21114 -65.52928 4518 ft 281 kts 169°
2026-05-06 18:52 -43.22943 -65.52133 4095 ft 272 kts 157°
2026-05-06 18:52 -43.24689 -65.51231 3693 ft 264 kts 157°
2026-05-06 18:52 -43.26225 -65.50023 3318 ft 248 kts 128°
2026-05-06 18:53 -43.26897 -65.48022 2985 ft 222 kts 85°
2026-05-06 18:53 -43.26620 -65.46105 2981 ft 194 kts 65°
2026-05-06 18:53 -43.26132 -65.44403 2681 ft 190 kts 61°
2026-05-06 18:53 -43.25622 -65.42784 2371 ft 178 kts 62°
2026-05-06 18:54 -43.25162 -65.41292 2124 ft 160 kts 62°
2026-05-06 18:54 -43.24757 -65.39948 1888 ft 145 kts 62°
2026-05-06 18:54 -43.24399 -65.38733 1704 ft 133 kts 63°
2026-05-06 18:54 -43.24060 -65.37578 1522 ft 129 kts 62°
2026-05-06 18:55 -43.23728 -65.36443 1349 ft 128 kts 63°
2026-05-06 18:55 -43.23402 -65.35317 1162 ft 128 kts 64°
2026-05-06 18:55 -43.23073 -65.34193 1000 ft 127 kts 65°
2026-05-06 18:55 -43.22721 -65.33074 809 ft 128 kts 65°
2026-05-06 18:56 -43.22399 -65.31942 663 ft 127 kts 69°
2026-05-06 18:56 -43.22085 -65.30770 529 ft 134 kts 70°
2026-05-06 18:56 -43.21759 -65.29577 351 ft 132 kts 69°
2026-05-06 18:56 -43.21440 -65.28437 178 ft 125 kts 69°
2026-05-06 18:57 -43.21151 -65.27408 119 ft 95 kts 68°
2026-05-06 18:57 -43.21016 -65.26926 120 ft 31 kts 69°
2026-05-06 18:57 -43.20938 -65.26651 119 ft 31 kts 70°
2026-05-06 18:57 -43.20860 -65.26364 116 ft 32 kts 69°
2026-05-06 18:58 -43.20751 -65.26097 117 ft 32 kts 46°
2026-05-06 18:58 -43.20591 -65.25911 118 ft 29 kts 40°
2026-05-06 18:58 -43.20474 -65.25760 116 ft 20 kts 61°
2026-05-06 18:58 -43.20520 -65.25618 118 ft 20 kts 158°
2026-05-06 18:59 -43.20637 -65.25627 119 ft 18 kts 220°
2026-05-06 18:59 -43.20698 -65.25790 119 ft 21 kts 250°
2026-05-06 18:59 -43.20755 -65.25994 115 ft 25 kts 248°
2026-05-06 18:59 -43.20821 -65.26230 116 ft 28 kts 250°
2026-05-06 19:00 -43.20894 -65.26493 117 ft 31 kts 248°
2026-05-06 19:00 -43.20974 -65.26779 118 ft 33 kts 249°
2026-05-06 19:00 -43.21059 -65.27088 119 ft 36 kts 250°
2026-05-06 19:00 -43.21142 -65.27390 119 ft 30 kts 248°
2026-05-06 19:01 -43.21172 -65.27635 121 ft 25 kts 275°
2026-05-06 19:01 -43.21147 -65.27848 121 ft 19 kts 281°
2026-05-06 19:01 -43.21126 -65.28020 122 ft 16 kts 281°
2026-05-06 19:01 -43.21147 -65.28173 120 ft 18 kts 250°
2026-05-06 19:02 -43.21148 -65.28310 119 ft 15 kts 317°
2026-05-06 19:02 -43.21066 -65.28330 120 ft 10 kts 12°
2026-05-06 19:02 -43.21023 -65.28321 120 ft 4 kts
2026-05-06 19:02 -43.21010 -65.28324 121 ft 0 kts 342°